Location: Poughquag
(41.6090°N, 73.6820°W)
Time: 12:50:00
(UTC-04:00)

Transit 2A Rocket - Pass Details

Date: 31 May 2020
Orbit: 584 x 919 km, 66.7° (Epoch: 06 July)

Event Time Altitude Azimuth Distance (km) Brightness Sun altitude
Rises 23:05:48 0° 216° (SW) 3,029 - -21.7°
Reaches altitude 10° 23:08:02 10° 218° (SW) 2,166 - -21.8°
Exits shadow 23:09:43 22° 222° (SW) 1,546 6.4 -22.0°
Maximum altitude 23:12:58 69° 302° (WNW) 807 5.2 -22.2°
Drops below altitude 10° 23:18:28 10° 26° (NNE) 2,407 8.1 -22.7°
Sets 23:21:03 0° 29° (NNE) 3,394 8.9 -22.8°
